Weather History for KTEB - October, 2012

Change the Weather History Date:

Tuesday, October 23, 2012

  Actual Average Record
Temperature  
Mean Temperature 55 °F -  
Max Temperature 64 °F 60 °F 81 °F (2007)
Min Temperature 46 °F 41 °F 28 °F (1997)
Degree Days  
Heating Degree Days 10    
Growing Degree Days 5 (Base 50)    
Moisture  
Dew Point 47 °F    
Average Humidity 72    
Maximum Humidity 87    
Minimum Humidity 47    
Precipitation  
Precipitation 0.02 in - - ()
Sea Level Pressure  
Sea Level Pressure 30.08 in    
Wind  
Wind Speed 1 mph (NNE)    
Max Wind Speed 6 mph    
Max Gust Speed -    
Visibility 10 miles    
Events Rain    
Averages and records for this station are not official NWS values.
T = Trace of Precipitation, MM = Missing Value Source: NWS Daily Summary

Daily Weather History Graph

Daily Weather History Graph

Search for Another Location

Airport or City:

Trip Planner

Search our weather history database for the weather conditions in past years. The results will help you decide how hot, cold, wet, or windy it might be!

Date:

Astronomy

Oct. 23, 2012 Rise Set
Actual Time 7:16 AM EDT 6:03 PM EDT
Civil Twilight 6:48 AM EDT 6:31 PM EDT
Nautical Twilight 6:16 AM EDT 7:03 PM EDT
Astronomical Twilight 5:45 AM EDT 7:35 PM EDT
Moon 2:47 PM EDT (10/23) 1:03 AM EDT (10/23)
Length of Visible Light 11h 42m
Length of Day
10h 46m
Waxing Gibbous, 66% of the Moon is Illuminated
Oct 23
Waxing Gibbous
Oct 29
Full
Nov 6
Last Quarter
Nov 13
New
Nov 20
First Quarter

Hourly Weather History & Observations

Time (EDT) Temp. Dew Point Humidity Pressure Visibility Wind Dir Wind Speed Gust Speed Precip Events Conditions
12:51 AM 52.0 °F 42.1 °F 69% 30.06 in 10.0 mi Calm Calm - N/A   Clear
1:51 AM 50.0 °F 43.0 °F 77% 30.06 in 10.0 mi Calm Calm - N/A   Clear
2:51 AM 46.9 °F 42.1 °F 83% 30.06 in 10.0 mi Calm Calm - N/A   Clear
3:51 AM 48.0 °F 42.1 °F 80% 30.06 in 10.0 mi SSW 4.6 mph - N/A   Clear
4:51 AM 48.9 °F 43.0 °F 80% 30.07 in 10.0 mi Calm Calm - N/A   Clear
5:51 AM 50.0 °F 43.0 °F 77% 30.09 in 10.0 mi Calm Calm - N/A   Clear
6:51 AM 50.0 °F 43.0 °F 77% 30.09 in 10.0 mi Calm Calm - N/A   Clear
7:51 AM 53.1 °F 45.0 °F 74% 30.12 in 10.0 mi Calm Calm - N/A   Clear
8:51 AM 55.0 °F 46.0 °F 72% 30.12 in 10.0 mi Calm Calm - N/A   Clear
9:51 AM 59.0 °F 45.0 °F 60% 30.13 in 10.0 mi NW 5.8 mph - N/A   Mostly Cloudy
10:51 AM 61.0 °F 44.1 °F 54% 30.12 in 10.0 mi Calm Calm - N/A   Overcast
11:51 AM 63.0 °F 44.1 °F 50% 30.11 in 10.0 mi Calm Calm - 0.00 in Rain Light Rain
12:51 PM 64.9 °F 44.1 °F 47% 30.09 in 10.0 mi Variable 3.5 mph - 0.00 in   Mostly Cloudy
1:51 PM 61.0 °F 50.0 °F 67% 30.08 in 10.0 mi North 3.5 mph - 0.00 in Rain Light Rain
2:51 PM 60.1 °F 48.9 °F 67% 30.07 in 10.0 mi Variable 3.5 mph - 0.00 in   Overcast
3:51 PM 59.0 °F 48.9 °F 69% 30.07 in 10.0 mi NE 3.5 mph - N/A   Overcast
4:51 PM 60.1 °F 48.9 °F 67% 30.06 in 10.0 mi Calm Calm - N/A   Mostly Cloudy
5:51 PM 60.1 °F 48.9 °F 67% 30.08 in 10.0 mi Calm Calm - N/A   Overcast
6:51 PM 59.0 °F 51.1 °F 75% 30.07 in 10.0 mi NE 4.6 mph - 0.00 in   Mostly Cloudy
7:51 PM 59.0 °F 51.1 °F 75% 30.07 in 10.0 mi NE 3.5 mph - N/A   Overcast
8:51 PM 57.9 °F 52.0 °F 81% 30.09 in 10.0 mi NNE 3.5 mph - 0.00 in   Overcast
9:51 PM 57.0 °F 53.1 °F 87% 30.09 in 10.0 mi Calm Calm - 0.01 in   Overcast
10:51 PM 57.0 °F 53.1 °F 87% 30.09 in 10.0 mi Calm Calm - 0.01 in Rain Light Rain
11:51 PM 57.0 °F 53.1 °F 87% 30.09 in 10.0 mi North 4.6 mph - 0.00 in   Overcast